Flag for Germany Weather past 2 weeks in Witzenhausen, Hesse, Germany

Now
34 °F

Passing clouds.


Feels Like: 31 °F
Forecast: 45 / 51 °F
Wind: 3 mph from South

Location: Kassel / Calden

Current Time: Mar 28, 2015 at 6:20:58 AM

Latest Report: Mar 28, 2015 at 5:50 AM


Visibility: N/A

Pressure: 30.15 "Hg

Humidity: 87%

Dew point: 30 °F

Location of WitzenhausenLocation

Historic Weather in Witzenhausen — Graph

°F

Witzenhausen temperature yesterday

Maximum temperature yesterday: 43 °F (at 9:50 AM)
Minimum temperature yesterday: 39 °F (at 5:50 AM)
Average temperature yesterday: 42 °F

Past Weeks' High & Low Weather Summary

 TemperatureHumidityPressure
High63 °F (Mar 25, 1:50 PM)100% (Mar 17, 6:20 AM)30.39 "Hg (Mar 17, 6:20 AM)
Low27 °F (Mar 23, 5:50 AM)37% (Mar 25, 1:50 PM)29.62 "Hg (Mar 25, 2:20 PM)
Average42 °F77%30.10 "Hg
* Reported Mar 12 9:20 PM — Mar 27 9:50 PM, Witzenhausen, Weather by CustomWeather, © 2015

Note: Actual official high and low records may vary slightly from our data, if they occured in-between our weather recording intervals... More about our weather records

Advertising

Witzenhausen weather history for previous 24 hours

 ConditionsComfort  
Time TempWeatherWind HumidityBarometerVisibility
9:50 PM
Fri, Mar 27
41 °FMostly cloudy.15 mph81%30.15 "HgN/A
9:20 PM41 °FPassing clouds.13 mph87%30.12 "HgN/A
8:50 PM41 °FOvercast.10 mph81%30.12 "HgN/A
8:20 PM41 °FOvercast.14 mph87%30.12 "HgN/A
7:50 PM41 °FOvercast.15 mph81%30.09 "HgN/A
7:20 PM43 °FOvercast.15 mph76%30.09 "HgN/A
6:50 PM43 °FMostly cloudy.12 mph76%30.07 "HgN/A
6:20 PM43 °FBroken clouds.16 mph76%30.07 "HgN/A
5:50 PM43 °FMostly cloudy.15 mph76%30.04 "HgN/A
5:20 PM43 °FMostly cloudy.13 mph76%30.04 "HgN/A
4:50 PM41 °FPartly sunny.13 mph87%30.04 "HgN/A
4:20 PM41 °FLight rain. Partly sunny.18 mph87%30.04 "Hg5 mi
3:50 PM43 °FLow clouds.12 mph76%30.01 "HgN/A
3:20 PM43 °FDrizzle. Mostly cloudy.12 mph81%30.01 "HgN/A
2:50 PM43 °FOvercast.15 mph76%29.98 "HgN/A
2:20 PM43 °FMostly cloudy.18 mph76%29.98 "HgN/A
1:50 PM43 °FPartly sunny.21 mph76%29.98 "HgN/A
1:20 PM43 °FMostly cloudy.12 mph81%29.95 "HgN/A
12:50 PM43 °FBroken clouds.15 mph81%29.95 "HgN/A
12:20 PM43 °FCloudy.15 mph81%29.95 "HgN/A
11:50 AM41 °FLight rain. Mostly cloudy.17 mph87%29.95 "HgN/A
11:20 AM43 °FMostly cloudy.17 mph76%29.95 "HgN/A
10:50 AM43 °FBroken clouds.13 mph76%29.92 "HgN/A
10:20 AM43 °FLight rain. Mostly cloudy.15 mph81%29.92 "HgN/A
9:50 AM43 °FPartly sunny.14 mph81%29.92 "HgN/A
9:20 AM41 °FLight rain. Mostly cloudy.10 mph87%29.89 "HgN/A
8:50 AM41 °FMostly cloudy.12 mph87%29.89 "HgN/A
8:20 AM39 °FLight rain. Partly sunny.8 mph93%29.89 "Hg6 mi
7:50 AM39 °FLight rain. Low clouds.8 mph93%29.86 "Hg4 mi
7:20 AM39 °FPartly sunny.8 mph87%29.86 "Hg6 mi
6:50 AM39 °FLight rain. Partly sunny.6 mph87%29.86 "Hg5 mi
6:20 AM39 °FPartly sunny.7 mph87%29.83 "HgN/A
Weather by CustomWeather, © 2015

See weather overviewHow to use our weather pages